Overview Statistics Trail Chart Weather Telemetry Raw packets
 

This is the latest recevied weather packets stored in our database for station/object KN4AN. If no packets are shown the sender has not sent any weather packets the latest 10 day(s).

<< 75 76 77 78 79 80 81 >>
Time Temp. Humidity Pressure Rain* Wind** Luminosity Snow
1788009355 23.33° C 82% 1023.6 hPa 0 mm - 162 W/m² -
1788009050 23.33° C 82% 1023.6 hPa 0 mm - 167 W/m² -
1788008746 22.78° C 85% 1023.6 hPa 0 mm - 180 W/m² -
1788008445 22.78° C 84% 1023.6 hPa 0 mm - 135 W/m² -
1788008143 22.22° C 85% 1023.6 hPa 0 mm - 120 W/m² -
1788007841 22.22° C 87% 1023.6 hPa 0 mm - 139 W/m² -
1788007540 22.22° C 87% 1023.6 hPa 0 mm - 84 W/m² -
1788007240 22.22° C 87% 1023.6 hPa 0 mm - 80 W/m² -
1788006939 22.22° C 87% 1023.6 hPa 0 mm - 113 W/m² -
1788006639 21.67° C 89% 1023.4 hPa 0 mm - 143 W/m² -
1788006334 21.67° C 91% 1023.4 hPa 0 mm - 115 W/m² -
1788006032 21.11° C 93% 1023.3 hPa 0 mm - 110 W/m² -
1788005727 20.56° C 96% 1023.2 hPa 0 mm - 103 W/m² -
1788005422 20.56° C 98% 1023.3 hPa 0 mm - 92 W/m² -
1788005121 20.56° C 98% 1023 hPa 0 mm - 72 W/m² -
1788004816 20° C 99% 1023.2 hPa 0 mm - 73 W/m² -
1788004514 19.44° C 98% 1023 hPa 0 mm - 47 W/m² -
1788004209 19.44° C 98% 1022.9 hPa 0 mm - 53 W/m² -
1788003909 19.44° C 98% 1023 hPa 0 mm - 50 W/m² -
1788003603 18.89° C 98% 1023 hPa 0 mm - 43 W/m² -
1788003297 18.89° C 98% 1022.9 hPa 0 mm - 34 W/m² -
1788002997 18.89° C 98% 1023 hPa 0 mm - 27 W/m² -
1788002692 18.89° C 98% 1022.8 hPa 0 mm - 24 W/m² -
1788002388 18.89° C 98% 1023 hPa 0 mm - 22 W/m² -
1788002083 18.89° C 98% 1022.9 hPa 0 mm - 17 W/m² -

* Rain latest hour (hover to see other rain measurements)
** Current wind speed in m/s (hover to see current wind gust speed)